Baker, MT

8:06 AM MDT on September 19, 2017 (GMT -0600)
Baker Municipal

Weather History for KBHK - January, 2012

Change the Weather History Date:

Thursday, January 26, 2012

  Actual Average Record
Temperature  
Mean Temperature 32 °F -  
Max Temperature 42 °F 22 °F 55 °F (2015)
Min Temperature 21 °F 16 °F -14 °F (2009)
Degree Days  
Heating Degree Days 34    
Moisture  
Dew Point 23 °F    
Average Humidity 69    
Maximum Humidity 85    
Minimum Humidity 47    
Precipitation  
Precipitation 0.00 in - - ()
Sea Level Pressure  
Sea Level Pressure 29.87 in    
Wind  
Wind Speed 8 mph (WSW)    
Max Wind Speed 24 mph    
Max Gust Speed 36 mph    
Visibility 10 miles    
Events Snow    
Averages and records for this station are not official NWS values.
T = Trace of Precipitation, MM = Missing Value Source: NWS Daily Summary

Daily Weather History Graph

Daily Weather History Graph

Search for Another Location

Airport or City:

Trip Planner

Search our weather history database for the weather conditions in past years. The results will help you decide how hot, cold, wet, or windy it might be!

Date:

Astronomy

Jan. 26, 2012 Rise Set
Actual Time 7:27 AM MST 4:52 PM MST
Civil Twilight 6:54 AM MST 5:24 PM MST
Nautical Twilight 6:18 AM MST 6:01 PM MST
Astronomical Twilight 5:42 AM MST 6:36 PM MST
Moon 8:40 AM MST (1/26) 9:04 PM MST (1/26)
Length of Visible Light 10h 30m
Length of Day
9h 24m
Waxing Crescent, 13% of the Moon is Illuminated
Jan 26
Waxing Crescent
Jan 30
First Quarter
Feb 7
Full
Feb 14
Last Quarter
Feb 21
New

Hourly Weather History & Observations

Time (MST) Temp. Windchill Dew Point Humidity Pressure Visibility Wind Dir Wind Speed Gust Speed Precip Events Conditions
12:51 AM 32.0 °F 22.1 °F 19.9 °F 61% 29.95 in 10.0 mi WNW 13.8 mph 20.7 mph N/A   Clear
1:51 AM 30.0 °F 21.1 °F 21.0 °F 69% 29.99 in 10.0 mi WNW 10.4 mph - N/A   Clear
2:51 AM 26.1 °F 17.6 °F 19.9 °F 78% 30.00 in 10.0 mi West 8.1 mph - N/A   Clear
3:51 AM 25.0 °F 20.7 °F 19.0 °F 78% 30.02 in 10.0 mi NW 3.5 mph - N/A   Clear
4:51 AM 23.0 °F - 19.0 °F 85% 30.03 in 10.0 mi North - - N/A   Clear
5:51 AM 21.9 °F - 18.0 °F 85% 30.03 in 10.0 mi Calm Calm - N/A   Clear
6:51 AM 25.0 °F - 18.0 °F 75% 30.04 in 10.0 mi Calm Calm - N/A   Clear
7:51 AM 21.0 °F - 16.0 °F 81% 30.03 in 10.0 mi Calm Calm - N/A   Clear
8:51 AM 25.0 °F - 19.9 °F 81% 30.01 in 10.0 mi Calm Calm - N/A   Clear
9:51 AM 33.1 °F - 23.0 °F 66% 29.96 in 10.0 mi Calm Calm - N/A   Clear
10:51 AM 39.0 °F 33.4 °F 21.9 °F 50% 29.93 in 10.0 mi SW 8.1 mph - N/A   Clear
11:51 AM 41.0 °F 34.3 °F 21.9 °F 47% 29.89 in 10.0 mi SW 11.5 mph - N/A   Clear
12:51 PM 42.1 °F 36.6 °F 23.0 °F 47% 29.84 in 10.0 mi SW 9.2 mph - N/A   Clear
2:51 PM 41.0 °F 35.2 °F 24.1 °F 51% 29.78 in 10.0 mi SSW 9.2 mph - N/A   Clear
3:51 PM 39.0 °F 34.8 °F 26.1 °F 60% 29.77 in 10.0 mi SW 5.8 mph - N/A   Overcast
4:51 PM 39.9 °F 32.1 °F 28.0 °F 63% 29.75 in 10.0 mi WSW 13.8 mph - N/A   Overcast
5:51 PM 37.0 °F - 27.0 °F 67% 29.72 in 10.0 mi Calm Calm - N/A   Overcast
6:51 PM 30.0 °F 22.4 °F 25.0 °F 82% 29.71 in 10.0 mi SSE 8.1 mph - N/A   Clear
7:51 PM 32.0 °F - 25.0 °F 75% 29.70 in 10.0 mi Calm Calm - N/A   Partly Cloudy
8:51 PM 36.0 °F 25.3 °F 30.0 °F 79% 29.70 in 9.0 mi WSW 19.6 mph - 0.00 in Snow Light Snow
9:51 PM 37.0 °F 27.7 °F 28.9 °F 73% 29.69 in 10.0 mi West 16.1 mph - 0.00 in   Mostly Cloudy
10:51 PM 37.0 °F 27.4 °F 28.0 °F 70% 29.71 in 10.0 mi WNW 17.3 mph 27.6 mph N/A   Overcast
11:51 PM 36.0 °F 24.2 °F 27.0 °F 70% 29.74 in 10.0 mi WNW 24.2 mph 35.7 mph N/A   Mostly Cloudy